GEFSCGP_prec_meanprecacc_222.txt.gz
Total_Precipitation_Accumulation
1.85 1.80 1.34 0.79 0.59 0.47 0.44 0.49 0.45 0.41 0.39 0.51 0.57 0.55 0.55 0.53 0.50 0.53 0.55 0.56 0.66 0.79 0.90 1.07 1.25 1.55 1.78 2.05 2.32 2.39 2.63 2.81 2.97 3.06 2.99 2.80 2.57 2.40 2.29 2.23 2.16 2.00 1.83 1.71
1.72 1.34 0.75 0.57 0.58 0.56 0.53 0.56 0.48 0.42 0.38 0.46 0.50 0.48 0.53 0.57 0.55 0.48 0.46 0.47 0.52 0.66 0.76 0.87 1.02 1.28 1.48 1.66 1.85 2.00 2.18 2.41 2.63 2.75 2.72 2.74 2.75 2.57 2.35 2.25 2.20 2.16 2.07 1.94
1.23 0.81 0.56 0.61 0.68 0.71 0.61 0.56 0.49 0.45 0.41 0.46 0.48 0.51 0.49 0.51 0.53 0.50 0.46 0.46 0.51 0.63 0.66 0.72 0.82 1.06 1.21 1.34 1.53 1.67 1.83 1.99 2.11 2.47 2.72 2.73 2.80 2.72 2.41 2.15 2.00 2.06 2.16 2.15
1.04 0.63 0.63 0.74 0.69 0.67 0.69 0.46 0.45 0.46 0.61 0.68 0.49 0.63 0.48 0.44 0.47 0.51 0.51 0.51 0.59 0.65 0.68 0.72 0.77 0.91 0.99 1.06 1.26 1.46 1.64 1.79 1.83 2.08 2.36 2.40 2.29 2.24 2.13 2.06 2.08 2.11 2.14 2.18
1.07 0.67 0.70 0.81 0.59 0.58 0.59 0.44 0.50 0.56 0.65 0.68 0.44 0.54 0.50 0.43 0.52 0.55 0.54 0.56 0.62 0.61 0.62 0.70 0.73 0.78 0.85 0.88 0.97 1.17 1.46 1.61 1.66 1.73 1.92 2.14 2.19 2.14 2.16 2.16 2.14 2.08 1.99 2.02
0.82 0.69 0.75 0.70 0.52 0.56 0.60 0.69 0.76 0.77 0.95 0.95 0.41 0.44 0.48 0.47 0.54 0.54 0.49 0.53 0.56 0.55 0.59 0.64 0.63 0.65 0.76 0.75 0.76 0.90 1.11 1.40 1.56 1.62 1.71 1.83 1.91 1.89 1.92 2.01 2.06 2.07 1.98 1.87
1.02 0.81 0.71 0.71 0.86 0.85 0.93 1.36 1.69 1.52 1.32 0.72 0.25 0.33 0.46 0.44 0.46 0.50 0.48 0.47 0.49 0.54 0.54 0.59 0.63 0.68 0.71 0.70 0.65 0.71 0.83 1.09 1.31 1.39 1.42 1.51 1.66 1.71 1.69 1.74 1.87 1.92 1.88 1.77
1.08 0.95 0.65 0.73 0.99 1.04 0.92 1.14 1.34 1.04 0.66 0.34 0.21 0.30 0.38 0.37 0.38 0.39 0.34 0.34 0.41 0.47 0.47 0.51 0.55 0.59 0.58 0.58 0.61 0.65 0.73 0.83 0.95 1.05 1.13 1.24 1.35 1.44 1.43 1.43 1.54 1.63 1.63 1.62
0.85 0.73 0.45 0.52 0.66 0.79 0.90 0.89 0.75 0.92 0.61 0.40 0.25 0.26 0.29 0.28 0.28 0.29 0.29 0.30 0.34 0.36 0.36 0.39 0.43 0.44 0.42 0.43 0.51 0.57 0.60 0.66 0.75 0.82 0.89 1.01 1.07 1.18 1.27 1.30 1.35 1.45 1.47 1.44
0.79 0.86 0.52 0.54 0.78 0.88 0.86 0.77 0.90 1.37 1.04 0.56 0.25 0.22 0.30 0.29 0.27 0.29 0.29 0.27 0.26 0.26 0.28 0.32 0.38 0.39 0.37 0.36 0.37 0.40 0.48 0.61 0.69 0.69 0.75 0.84 0.91 0.97 1.05 1.14 1.19 1.22 1.20 1.18
0.72 1.03 0.74 0.72 0.92 0.87 0.87 1.01 1.07 1.11 0.87 0.75 0.47 0.31 0.27 0.26 0.26 0.27 0.27 0.24 0.22 0.22 0.25 0.27 0.30 0.33 0.36 0.34 0.31 0.31 0.39 0.50 0.58 0.61 0.65 0.70 0.75 0.80 0.85 0.90 0.95 0.97 0.98 0.99
0.70 1.15 0.93 0.61 0.52 0.57 0.72 0.80 0.98 1.33 0.97 0.72 0.61 0.38 0.23 0.20 0.21 0.23 0.24 0.24 0.24 0.24 0.26 0.25 0.24 0.26 0.33 0.33 0.32 0.31 0.36 0.43 0.51 0.55 0.60 0.65 0.67 0.69 0.74 0.79 0.79 0.78 0.80 0.82
0.86 1.36 1.28 0.89 0.75 0.76 0.85 0.73 0.77 1.11 1.38 1.05 0.81 0.41 0.20 0.17 0.17 0.19 0.21 0.24 0.26 0.27 0.27 0.26 0.24 0.23 0.28 0.31 0.32 0.31 0.34 0.40 0.46 0.52 0.54 0.59 0.62 0.62 0.65 0.69 0.72 0.73 0.77 0.82
1.12 1.38 1.15 0.91 0.81 0.85 0.80 0.63 0.75 1.42 1.76 0.97 0.48 0.26 0.16 0.19 0.24 0.23 0.22 0.24 0.27 0.29 0.29 0.29 0.32 0.28 0.27 0.29 0.28 0.27 0.29 0.34 0.39 0.46 0.50 0.52 0.59 0.61 0.61 0.61 0.63 0.67 0.70 0.76
1.01 1.32 0.87 0.53 0.42 0.61 0.63 0.59 0.69 1.04 1.04 0.97 0.47 0.26 0.22 0.24 0.29 0.28 0.25 0.22 0.22 0.24 0.26 0.28 0.30 0.31 0.30 0.29 0.28 0.25 0.25 0.29 0.33 0.39 0.44 0.47 0.53 0.58 0.61 0.61 0.62 0.64 0.66 0.70
0.82 1.08 0.88 0.59 0.35 0.47 0.57 0.51 0.52 0.58 0.62 0.62 0.45 0.37 0.27 0.26 0.27 0.26 0.22 0.20 0.20 0.21 0.23 0.25 0.24 0.27 0.26 0.29 0.30 0.29 0.28 0.27 0.30 0.34 0.38 0.41 0.45 0.49 0.55 0.59 0.60 0.61 0.64 0.70
0.71 0.95 1.12 0.77 0.41 0.55 0.65 0.53 0.52 0.51 0.49 0.52 0.55 0.45 0.34 0.32 0.29 0.27 0.24 0.20 0.19 0.16 0.16 0.19 0.20 0.22 0.23 0.24 0.27 0.28 0.28 0.27 0.29 0.31 0.34 0.38 0.43 0.46 0.49 0.56 0.61 0.68 0.72 0.80
0.46 0.80 1.22 0.91 0.62 0.77 0.54 0.40 0.41 0.46 0.47 0.48 0.47 0.38 0.32 0.30 0.30 0.28 0.24 0.20 0.17 0.14 0.12 0.11 0.14 0.15 0.16 0.17 0.20 0.25 0.26 0.27 0.28 0.31 0.37 0.40 0.44 0.53 0.59 0.60 0.66 0.76 0.82 0.89
0.25 0.66 1.18 1.05 0.78 0.50 0.32 0.28 0.34 0.44 0.49 0.44 0.35 0.26 0.23 0.24 0.28 0.28 0.23 0.18 0.15 0.14 0.14 0.12 0.11 0.14 0.14 0.15 0.19 0.24 0.28 0.30 0.29 0.31 0.39 0.44 0.47 0.58 0.67 0.66 0.70 0.77 0.83 0.90
0.23 0.53 1.14 1.11 0.92 0.48 0.30 0.18 0.18 0.32 0.54 0.38 0.30 0.27 0.27 0.29 0.35 0.31 0.22 0.19 0.17 0.16 0.15 0.16 0.15 0.15 0.18 0.20 0.23 0.28 0.33 0.41 0.43 0.42 0.47 0.54 0.61 0.71 0.75 0.73 0.73 0.72 0.73 0.75
0.41 0.77 1.05 0.93 0.87 0.42 0.25 0.15 0.17 0.47 0.58 0.29 0.25 0.26 0.27 0.30 0.30 0.26 0.19 0.17 0.19 0.20 0.19 0.19 0.20 0.22 0.24 0.24 0.27 0.31 0.36 0.48 0.55 0.57 0.59 0.62 0.68 0.72 0.72 0.70 0.67 0.63 0.59 0.59
0.39 0.56 0.63 0.67 0.88 0.59 0.26 0.20 0.36 0.47 0.29 0.24 0.25 0.26 0.27 0.26 0.22 0.19 0.20 0.19 0.17 0.17 0.19 0.21 0.24 0.26 0.28 0.32 0.37 0.39 0.43 0.49 0.54 0.57 0.58 0.59 0.60 0.61 0.64 0.63 0.61 0.57 0.55 0.55
0.40 0.50 0.53 0.57 0.61 0.46 0.32 0.33 0.32 0.26 0.24 0.21 0.22 0.23 0.22 0.23 0.22 0.19 0.17 0.16 0.17 0.18 0.19 0.23 0.27 0.31 0.34 0.35 0.38 0.41 0.41 0.42 0.44 0.47 0.50 0.50 0.48 0.48 0.50 0.51 0.52 0.52 0.51 0.51
0.38 0.31 0.40 0.47 0.45 0.35 0.30 0.25 0.21 0.18 0.19 0.17 0.16 0.17 0.20 0.23 0.22 0.20 0.18 0.17 0.15 0.15 0.17 0.20 0.23 0.24 0.26 0.27 0.29 0.31 0.30 0.31 0.33 0.35 0.39 0.42 0.40 0.39 0.40 0.41 0.44 0.46 0.47 0.47
0.41 0.36 0.39 0.42 0.36 0.28 0.26 0.22 0.19 0.16 0.15 0.13 0.12 0.12 0.15 0.17 0.17 0.18 0.18 0.17 0.16 0.16 0.16 0.17 0.18 0.20 0.21 0.20 0.20 0.22 0.23 0.24 0.28 0.29 0.30 0.32 0.36 0.38 0.39 0.41 0.43 0.47 0.47 0.52
0.30 0.34 0.42 0.46 0.34 0.33 0.32 0.24 0.19 0.17 0.15 0.14 0.13 0.13 0.12 0.13 0.14 0.13 0.14 0.14 0.15 0.16 0.16 0.16 0.16 0.19 0.23 0.22 0.19 0.18 0.18 0.20 0.25 0.28 0.29 0.31 0.34 0.36 0.37 0.39 0.42 0.47 0.48 0.53

GEFSCGP_prec_meanprecacc_228.txt.gz
Total_Precipitation_Accumulation
1.89 1.84 1.37 0.81 0.60 0.47 0.44 0.49 0.45 0.41 0.39 0.52 0.57 0.55 0.55 0.53 0.50 0.53 0.55 0.56 0.66 0.79 0.91 1.07 1.25 1.55 1.78 2.05 2.32 2.39 2.63 2.81 2.98 3.06 3.00 2.82 2.61 2.45 2.35 2.29 2.23 2.06 1.88 1.76
1.77 1.37 0.76 0.58 0.58 0.56 0.53 0.56 0.48 0.42 0.38 0.46 0.50 0.48 0.53 0.57 0.55 0.48 0.46 0.48 0.53 0.66 0.76 0.87 1.02 1.28 1.48 1.66 1.85 2.00 2.18 2.42 2.63 2.75 2.73 2.75 2.78 2.61 2.39 2.30 2.25 2.21 2.13 1.99
1.26 0.82 0.56 0.62 0.70 0.73 0.63 0.57 0.49 0.45 0.41 0.46 0.48 0.51 0.49 0.51 0.53 0.50 0.46 0.46 0.51 0.63 0.66 0.72 0.82 1.06 1.21 1.34 1.53 1.67 1.83 1.99 2.11 2.48 2.73 2.74 2.81 2.73 2.43 2.18 2.02 2.10 2.19 2.20
1.06 0.64 0.64 0.77 0.71 0.70 0.72 0.47 0.45 0.46 0.62 0.68 0.50 0.63 0.48 0.45 0.47 0.51 0.51 0.51 0.59 0.65 0.68 0.72 0.77 0.91 0.99 1.06 1.26 1.46 1.64 1.79 1.83 2.09 2.37 2.41 2.29 2.24 2.14 2.07 2.09 2.13 2.16 2.21
1.09 0.69 0.71 0.84 0.62 0.60 0.62 0.46 0.52 0.57 0.65 0.68 0.45 0.54 0.51 0.43 0.52 0.55 0.54 0.57 0.62 0.61 0.62 0.70 0.73 0.78 0.85 0.88 0.97 1.18 1.46 1.61 1.67 1.74 1.94 2.15 2.20 2.16 2.18 2.17 2.15 2.09 2.01 2.04
0.83 0.71 0.78 0.71 0.54 0.59 0.63 0.72 0.80 0.80 0.99 0.98 0.41 0.45 0.48 0.47 0.54 0.54 0.49 0.53 0.56 0.55 0.59 0.64 0.63 0.65 0.76 0.75 0.76 0.90 1.11 1.40 1.56 1.63 1.72 1.84 1.93 1.91 1.94 2.03 2.07 2.09 1.99 1.88
1.04 0.82 0.73 0.74 0.89 0.88 0.99 1.43 1.78 1.62 1.40 0.74 0.25 0.33 0.46 0.44 0.46 0.51 0.49 0.47 0.50 0.54 0.55 0.59 0.63 0.68 0.71 0.70 0.65 0.71 0.84 1.09 1.32 1.40 1.42 1.52 1.68 1.73 1.71 1.76 1.89 1.94 1.89 1.78
1.10 0.97 0.67 0.76 1.03 1.08 0.96 1.20 1.39 1.08 0.69 0.35 0.21 0.30 0.38 0.37 0.38 0.39 0.35 0.35 0.41 0.48 0.48 0.52 0.55 0.59 0.58 0.58 0.61 0.65 0.73 0.83 0.95 1.05 1.13 1.24 1.36 1.46 1.45 1.45 1.57 1.66 1.64 1.64
0.87 0.75 0.46 0.54 0.68 0.82 0.94 0.94 0.78 0.94 0.62 0.40 0.26 0.27 0.30 0.28 0.28 0.30 0.29 0.30 0.34 0.37 0.36 0.39 0.44 0.44 0.42 0.43 0.51 0.57 0.60 0.67 0.76 0.82 0.89 1.02 1.08 1.20 1.29 1.32 1.37 1.48 1.50 1.46
0.83 0.89 0.53 0.56 0.81 0.90 0.90 0.81 0.95 1.43 1.07 0.58 0.26 0.23 0.31 0.29 0.27 0.29 0.29 0.28 0.27 0.26 0.29 0.32 0.38 0.39 0.37 0.36 0.37 0.40 0.48 0.61 0.69 0.69 0.76 0.84 0.92 0.98 1.07 1.15 1.21 1.25 1.23 1.21
0.76 1.07 0.77 0.74 0.96 0.92 0.92 1.08 1.13 1.16 0.90 0.78 0.48 0.32 0.29 0.27 0.26 0.27 0.28 0.25 0.23 0.22 0.26 0.27 0.30 0.33 0.37 0.34 0.31 0.32 0.39 0.51 0.58 0.61 0.66 0.71 0.77 0.82 0.86 0.91 0.96 1.00 1.00 1.01
0.74 1.21 0.97 0.64 0.55 0.60 0.76 0.85 1.04 1.37 1.00 0.74 0.62 0.40 0.25 0.21 0.22 0.24 0.25 0.25 0.24 0.25 0.26 0.25 0.24 0.26 0.33 0.33 0.33 0.32 0.36 0.43 0.51 0.56 0.60 0.66 0.68 0.70 0.75 0.80 0.80 0.80 0.82 0.83
0.92 1.43 1.33 0.93 0.80 0.80 0.91 0.79 0.81 1.15 1.41 1.07 0.83 0.43 0.21 0.18 0.18 0.20 0.22 0.24 0.26 0.27 0.28 0.27 0.24 0.23 0.28 0.31 0.32 0.31 0.34 0.40 0.46 0.52 0.55 0.60 0.63 0.63 0.66 0.70 0.73 0.74 0.78 0.83
1.18 1.44 1.20 0.97 0.86 0.90 0.85 0.68 0.79 1.46 1.81 1.00 0.50 0.27 0.18 0.20 0.25 0.24 0.23 0.24 0.28 0.31 0.30 0.30 0.32 0.28 0.27 0.29 0.28 0.27 0.30 0.35 0.39 0.46 0.51 0.53 0.60 0.62 0.62 0.63 0.65 0.68 0.71 0.77
1.04 1.36 0.91 0.55 0.43 0.63 0.66 0.62 0.73 1.08 1.07 0.99 0.49 0.28 0.23 0.25 0.31 0.29 0.26 0.23 0.24 0.26 0.27 0.28 0.30 0.32 0.30 0.29 0.28 0.25 0.26 0.30 0.34 0.40 0.45 0.48 0.54 0.59 0.63 0.63 0.64 0.66 0.67 0.72
0.85 1.11 0.90 0.62 0.37 0.48 0.58 0.53 0.55 0.62 0.66 0.65 0.47 0.40 0.29 0.27 0.28 0.27 0.24 0.22 0.22 0.23 0.25 0.26 0.24 0.27 0.27 0.29 0.30 0.30 0.28 0.28 0.31 0.35 0.39 0.43 0.47 0.51 0.58 0.62 0.63 0.64 0.67 0.73
0.74 0.98 1.15 0.80 0.44 0.56 0.67 0.56 0.56 0.55 0.53 0.55 0.58 0.48 0.36 0.34 0.31 0.29 0.26 0.23 0.22 0.19 0.18 0.20 0.20 0.23 0.24 0.24 0.27 0.28 0.28 0.27 0.30 0.33 0.35 0.40 0.45 0.49 0.53 0.61 0.66 0.72 0.76 0.84
0.49 0.84 1.26 0.94 0.66 0.81 0.58 0.43 0.44 0.49 0.50 0.52 0.50 0.41 0.35 0.33 0.31 0.30 0.26 0.21 0.19 0.17 0.15 0.13 0.15 0.15 0.16 0.18 0.21 0.25 0.26 0.28 0.29 0.32 0.39 0.42 0.46 0.55 0.62 0.64 0.71 0.81 0.87 0.94
0.28 0.70 1.22 1.09 0.81 0.53 0.34 0.31 0.39 0.47 0.53 0.49 0.38 0.29 0.27 0.27 0.29 0.30 0.25 0.19 0.16 0.16 0.17 0.15 0.14 0.15 0.15 0.16 0.20 0.25 0.30 0.31 0.30 0.32 0.39 0.45 0.48 0.60 0.69 0.69 0.73 0.81 0.87 0.94
0.25 0.57 1.18 1.15 0.95 0.51 0.33 0.20 0.21 0.36 0.59 0.42 0.33 0.30 0.30 0.32 0.38 0.33 0.24 0.20 0.19 0.17 0.17 0.19 0.18 0.17 0.20 0.22 0.24 0.30 0.35 0.42 0.44 0.43 0.48 0.55 0.62 0.72 0.77 0.75 0.75 0.75 0.76 0.78
0.43 0.80 1.09 0.96 0.90 0.45 0.29 0.18 0.20 0.53 0.64 0.32 0.29 0.29 0.31 0.34 0.33 0.28 0.21 0.18 0.20 0.21 0.20 0.21 0.21 0.23 0.26 0.28 0.29 0.33 0.38 0.50 0.57 0.58 0.60 0.63 0.70 0.73 0.73 0.72 0.69 0.65 0.61 0.61
0.41 0.59 0.67 0.71 0.92 0.63 0.30 0.24 0.42 0.54 0.33 0.28 0.29 0.31 0.31 0.31 0.25 0.21 0.22 0.20 0.18 0.18 0.20 0.23 0.25 0.27 0.30 0.35 0.40 0.41 0.45 0.51 0.56 0.59 0.60 0.61 0.62 0.63 0.66 0.65 0.63 0.59 0.57 0.56
0.43 0.54 0.57 0.61 0.67 0.52 0.38 0.39 0.39 0.31 0.29 0.26 0.27 0.28 0.27 0.28 0.27 0.22 0.19 0.18 0.18 0.19 0.21 0.25 0.29 0.32 0.36 0.38 0.41 0.44 0.43 0.43 0.46 0.50 0.52 0.51 0.49 0.50 0.51 0.53 0.54 0.54 0.53 0.53
0.41 0.34 0.43 0.51 0.51 0.41 0.36 0.30 0.26 0.23 0.24 0.22 0.21 0.22 0.25 0.27 0.26 0.23 0.20 0.19 0.16 0.17 0.19 0.22 0.25 0.27 0.29 0.31 0.32 0.34 0.32 0.32 0.35 0.37 0.41 0.43 0.42 0.41 0.42 0.43 0.46 0.48 0.49 0.49
0.45 0.39 0.42 0.46 0.41 0.32 0.30 0.27 0.23 0.20 0.18 0.17 0.16 0.16 0.19 0.21 0.21 0.21 0.21 0.19 0.18 0.17 0.18 0.19 0.21 0.23 0.25 0.25 0.25 0.26 0.26 0.26 0.29 0.31 0.33 0.34 0.38 0.39 0.41 0.42 0.45 0.49 0.49 0.55
0.35 0.38 0.46 0.51 0.39 0.38 0.37 0.28 0.22 0.19 0.18 0.17 0.16 0.16 0.15 0.16 0.18 0.16 0.17 0.17 0.18 0.19 0.19 0.19 0.19 0.22 0.26 0.26 0.22 0.22 0.22 0.23 0.28 0.31 0.32 0.33 0.36 0.38 0.39 0.40 0.44 0.49 0.51 0.55

GEFSCGP_prec_meanprecacc_234.txt.gz
Total_Precipitation_Accumulation
1.91 1.88 1.41 0.85 0.64 0.49 0.45 0.49 0.45 0.41 0.39 0.52 0.57 0.55 0.55 0.53 0.51 0.53 0.55 0.56 0.66 0.79 0.91 1.07 1.25 1.55 1.78 2.05 2.32 2.39 2.63 2.83 3.00 3.10 3.04 2.86 2.64 2.49 2.38 2.32 2.26 2.09 1.91 1.78
1.80 1.40 0.77 0.59 0.61 0.60 0.56 0.57 0.48 0.42 0.38 0.46 0.50 0.48 0.53 0.57 0.55 0.48 0.46 0.48 0.53 0.66 0.76 0.87 1.02 1.29 1.48 1.66 1.85 2.00 2.18 2.42 2.64 2.77 2.76 2.79 2.82 2.65 2.43 2.34 2.29 2.25 2.16 2.02
1.29 0.83 0.57 0.64 0.72 0.77 0.67 0.60 0.51 0.46 0.41 0.47 0.49 0.51 0.49 0.51 0.53 0.50 0.46 0.46 0.51 0.64 0.66 0.72 0.83 1.06 1.21 1.34 1.53 1.67 1.83 1.99 2.12 2.48 2.74 2.76 2.83 2.76 2.46 2.20 2.04 2.12 2.21 2.22
1.09 0.65 0.65 0.78 0.73 0.73 0.76 0.49 0.47 0.48 0.63 0.69 0.50 0.63 0.48 0.45 0.47 0.51 0.51 0.51 0.59 0.65 0.68 0.72 0.77 0.91 0.99 1.06 1.26 1.46 1.65 1.79 1.83 2.09 2.38 2.42 2.30 2.26 2.15 2.08 2.10 2.14 2.18 2.22
1.13 0.71 0.73 0.86 0.64 0.62 0.64 0.48 0.54 0.60 0.69 0.71 0.46 0.54 0.51 0.44 0.52 0.55 0.54 0.57 0.62 0.61 0.63 0.70 0.73 0.78 0.85 0.88 0.97 1.18 1.46 1.61 1.67 1.75 1.94 2.16 2.21 2.17 2.18 2.18 2.16 2.11 2.02 2.06
0.85 0.74 0.81 0.73 0.55 0.62 0.66 0.76 0.85 0.86 1.05 1.05 0.43 0.46 0.50 0.48 0.55 0.54 0.49 0.53 0.56 0.55 0.59 0.64 0.63 0.65 0.76 0.75 0.76 0.90 1.11 1.40 1.57 1.63 1.72 1.85 1.93 1.91 1.95 2.03 2.08 2.10 2.01 1.90
1.05 0.84 0.76 0.76 0.90 0.91 1.04 1.51 1.89 1.74 1.52 0.79 0.26 0.34 0.48 0.45 0.46 0.51 0.49 0.47 0.50 0.54 0.55 0.60 0.63 0.68 0.72 0.70 0.66 0.71 0.84 1.09 1.32 1.40 1.42 1.52 1.68 1.74 1.72 1.76 1.90 1.95 1.90 1.80
1.12 0.99 0.69 0.78 1.05 1.12 1.01 1.27 1.47 1.15 0.72 0.36 0.23 0.32 0.41 0.37 0.39 0.39 0.35 0.35 0.42 0.48 0.48 0.52 0.56 0.59 0.58 0.58 0.61 0.65 0.73 0.84 0.96 1.06 1.14 1.24 1.36 1.46 1.45 1.45 1.58 1.66 1.65 1.65
0.90 0.77 0.47 0.55 0.69 0.84 0.99 0.99 0.83 1.00 0.66 0.43 0.28 0.29 0.32 0.29 0.29 0.30 0.29 0.31 0.35 0.37 0.37 0.39 0.44 0.44 0.42 0.44 0.51 0.57 0.60 0.67 0.76 0.83 0.90 1.02 1.08 1.20 1.29 1.32 1.38 1.50 1.51 1.48
0.86 0.91 0.54 0.57 0.83 0.92 0.93 0.85 1.00 1.51 1.14 0.62 0.29 0.26 0.34 0.30 0.28 0.30 0.30 0.28 0.28 0.27 0.29 0.32 0.38 0.39 0.37 0.36 0.37 0.40 0.48 0.61 0.69 0.69 0.76 0.85 0.92 0.99 1.07 1.16 1.21 1.26 1.25 1.23
0.78 1.10 0.79 0.77 0.99 0.94 0.95 1.12 1.20 1.23 0.96 0.82 0.53 0.38 0.32 0.28 0.27 0.28 0.29 0.26 0.23 0.22 0.26 0.28 0.30 0.33 0.37 0.34 0.31 0.32 0.39 0.51 0.59 0.61 0.66 0.71 0.77 0.82 0.87 0.92 0.97 1.02 1.03 1.05
0.76 1.25 1.00 0.67 0.57 0.62 0.79 0.89 1.08 1.44 1.05 0.78 0.67 0.45 0.27 0.23 0.23 0.25 0.26 0.25 0.25 0.25 0.27 0.25 0.24 0.26 0.33 0.33 0.33 0.32 0.36 0.43 0.51 0.56 0.60 0.66 0.68 0.71 0.76 0.82 0.81 0.82 0.85 0.88
0.98 1.49 1.38 0.98 0.84 0.84 0.95 0.82 0.84 1.19 1.46 1.12 0.88 0.48 0.24 0.19 0.19 0.21 0.22 0.25 0.26 0.27 0.28 0.27 0.24 0.23 0.28 0.31 0.32 0.32 0.34 0.40 0.46 0.52 0.55 0.60 0.63 0.64 0.67 0.71 0.74 0.76 0.80 0.86
1.23 1.49 1.25 1.03 0.93 0.97 0.91 0.72 0.83 1.50 1.86 1.05 0.54 0.31 0.20 0.21 0.26 0.25 0.24 0.25 0.28 0.31 0.30 0.30 0.33 0.28 0.27 0.29 0.28 0.27 0.30 0.35 0.39 0.46 0.51 0.53 0.61 0.63 0.63 0.64 0.66 0.70 0.73 0.79
1.07 1.39 0.93 0.59 0.46 0.66 0.70 0.66 0.77 1.12 1.12 1.04 0.53 0.31 0.25 0.27 0.32 0.30 0.27 0.24 0.24 0.26 0.28 0.29 0.31 0.32 0.30 0.29 0.28 0.25 0.26 0.30 0.34 0.40 0.46 0.49 0.55 0.60 0.63 0.64 0.65 0.67 0.69 0.74
0.87 1.14 0.93 0.65 0.39 0.50 0.59 0.56 0.58 0.66 0.69 0.68 0.49 0.43 0.32 0.29 0.29 0.28 0.25 0.23 0.23 0.24 0.26 0.26 0.25 0.27 0.27 0.29 0.31 0.30 0.28 0.28 0.31 0.36 0.40 0.44 0.48 0.51 0.58 0.63 0.64 0.65 0.68 0.74
0.76 1.00 1.18 0.83 0.47 0.59 0.71 0.61 0.59 0.59 0.57 0.59 0.62 0.52 0.39 0.36 0.32 0.30 0.27 0.24 0.23 0.20 0.19 0.21 0.22 0.24 0.24 0.25 0.27 0.29 0.28 0.28 0.30 0.34 0.36 0.40 0.46 0.50 0.54 0.62 0.67 0.74 0.78 0.86
0.51 0.86 1.30 0.97 0.68 0.85 0.64 0.47 0.48 0.52 0.53 0.56 0.53 0.44 0.38 0.35 0.33 0.31 0.28 0.22 0.20 0.18 0.16 0.15 0.16 0.17 0.17 0.18 0.21 0.25 0.27 0.28 0.29 0.33 0.40 0.43 0.47 0.56 0.63 0.66 0.74 0.83 0.90 0.96
0.30 0.73 1.25 1.11 0.85 0.57 0.37 0.33 0.42 0.51 0.56 0.52 0.41 0.32 0.29 0.29 0.30 0.31 0.26 0.20 0.18 0.17 0.19 0.17 0.15 0.16 0.16 0.17 0.20 0.26 0.30 0.32 0.30 0.33 0.40 0.46 0.50 0.61 0.70 0.70 0.75 0.84 0.90 0.96
0.27 0.59 1.21 1.17 0.99 0.55 0.37 0.22 0.24 0.39 0.63 0.44 0.35 0.33 0.32 0.33 0.40 0.34 0.25 0.21 0.20 0.19 0.19 0.21 0.20 0.18 0.21 0.23 0.25 0.31 0.37 0.43 0.45 0.44 0.48 0.56 0.63 0.73 0.78 0.77 0.76 0.76 0.78 0.80
0.45 0.82 1.12 0.99 0.93 0.49 0.32 0.19 0.22 0.57 0.69 0.35 0.31 0.32 0.34 0.36 0.36 0.30 0.22 0.19 0.21 0.23 0.22 0.23 0.24 0.25 0.28 0.29 0.30 0.35 0.40 0.52 0.58 0.59 0.61 0.64 0.71 0.74 0.74 0.73 0.70 0.66 0.63 0.63
0.43 0.62 0.69 0.73 0.95 0.68 0.33 0.26 0.47 0.59 0.35 0.30 0.31 0.33 0.34 0.34 0.28 0.23 0.24 0.22 0.20 0.20 0.22 0.25 0.28 0.30 0.32 0.37 0.42 0.43 0.47 0.54 0.59 0.61 0.61 0.62 0.63 0.64 0.66 0.66 0.63 0.60 0.58 0.57
0.46 0.58 0.60 0.64 0.72 0.58 0.43 0.44 0.44 0.35 0.32 0.29 0.30 0.31 0.30 0.31 0.30 0.25 0.21 0.20 0.20 0.21 0.23 0.27 0.32 0.35 0.38 0.40 0.43 0.46 0.45 0.46 0.49 0.53 0.55 0.53 0.51 0.51 0.53 0.54 0.55 0.54 0.54 0.54
0.43 0.36 0.45 0.54 0.55 0.45 0.40 0.34 0.30 0.27 0.29 0.27 0.25 0.26 0.28 0.30 0.29 0.26 0.23 0.21 0.19 0.19 0.21 0.24 0.27 0.29 0.31 0.33 0.34 0.36 0.35 0.35 0.37 0.40 0.44 0.46 0.44 0.43 0.44 0.44 0.47 0.49 0.50 0.50
0.47 0.41 0.44 0.49 0.44 0.35 0.34 0.31 0.28 0.25 0.23 0.21 0.20 0.19 0.22 0.24 0.24 0.25 0.25 0.23 0.22 0.20 0.21 0.22 0.24 0.26 0.28 0.27 0.28 0.28 0.29 0.30 0.32 0.33 0.35 0.37 0.40 0.42 0.43 0.44 0.47 0.50 0.51 0.56
0.38 0.41 0.49 0.55 0.42 0.41 0.41 0.32 0.26 0.23 0.22 0.21 0.20 0.19 0.18 0.19 0.21 0.20 0.21 0.21 0.22 0.23 0.22 0.22 0.22 0.25 0.29 0.29 0.26 0.25 0.26 0.27 0.31 0.34 0.35 0.36 0.39 0.41 0.41 0.43 0.46 0.52 0.53 0.58

GEFSCGP_prec_meanprecacc_240.txt.gz
Total_Precipitation_Accumulation
1.93 1.90 1.44 0.87 0.67 0.53 0.48 0.52 0.46 0.41 0.39 0.52 0.57 0.55 0.56 0.53 0.51 0.53 0.55 0.56 0.66 0.79 0.91 1.08 1.25 1.55 1.78 2.05 2.33 2.40 2.64 2.84 3.01 3.10 3.05 2.87 2.66 2.52 2.43 2.38 2.29 2.11 1.92 1.80
1.83 1.41 0.78 0.60 0.63 0.62 0.60 0.62 0.51 0.44 0.39 0.47 0.51 0.49 0.53 0.58 0.55 0.48 0.46 0.48 0.53 0.66 0.76 0.87 1.03 1.29 1.48 1.66 1.85 2.00 2.19 2.43 2.64 2.78 2.76 2.79 2.83 2.67 2.46 2.40 2.36 2.30 2.19 2.04
1.31 0.84 0.58 0.65 0.75 0.81 0.71 0.64 0.54 0.49 0.43 0.48 0.50 0.52 0.50 0.52 0.53 0.50 0.47 0.47 0.52 0.64 0.66 0.72 0.83 1.06 1.21 1.34 1.53 1.68 1.84 2.00 2.12 2.49 2.75 2.77 2.85 2.77 2.48 2.23 2.08 2.17 2.25 2.24
1.11 0.66 0.66 0.79 0.75 0.77 0.81 0.51 0.49 0.51 0.68 0.72 0.51 0.65 0.49 0.45 0.47 0.51 0.51 0.52 0.59 0.65 0.68 0.72 0.77 0.92 0.99 1.06 1.26 1.47 1.65 1.80 1.84 2.10 2.39 2.42 2.31 2.26 2.16 2.09 2.12 2.16 2.20 2.25
1.16 0.74 0.75 0.88 0.65 0.64 0.67 0.50 0.56 0.62 0.74 0.77 0.49 0.57 0.53 0.44 0.52 0.55 0.54 0.57 0.62 0.61 0.63 0.71 0.73 0.78 0.85 0.88 0.97 1.18 1.47 1.62 1.68 1.75 1.95 2.17 2.22 2.17 2.19 2.19 2.18 2.12 2.04 2.08
0.86 0.75 0.83 0.76 0.57 0.63 0.68 0.79 0.89 0.90 1.12 1.13 0.47 0.48 0.52 0.49 0.56 0.54 0.49 0.54 0.56 0.56 0.60 0.65 0.63 0.65 0.76 0.75 0.76 0.91 1.11 1.41 1.57 1.63 1.72 1.86 1.94 1.92 1.96 2.05 2.10 2.12 2.02 1.92
1.06 0.86 0.78 0.78 0.93 0.93 1.07 1.56 1.98 1.84 1.63 0.85 0.28 0.37 0.52 0.48 0.48 0.52 0.49 0.47 0.50 0.55 0.56 0.61 0.64 0.69 0.72 0.70 0.66 0.71 0.84 1.09 1.32 1.40 1.43 1.53 1.68 1.74 1.73 1.77 1.91 1.96 1.92 1.81
1.14 1.01 0.71 0.80 1.08 1.15 1.04 1.31 1.54 1.23 0.79 0.40 0.25 0.36 0.45 0.40 0.41 0.40 0.36 0.35 0.42 0.49 0.48 0.52 0.56 0.59 0.58 0.58 0.61 0.65 0.74 0.84 0.96 1.06 1.14 1.25 1.37 1.47 1.46 1.46 1.59 1.68 1.67 1.66
0.93 0.79 0.49 0.57 0.71 0.86 1.02 1.03 0.87 1.07 0.72 0.47 0.32 0.33 0.36 0.30 0.30 0.31 0.30 0.32 0.36 0.38 0.37 0.40 0.44 0.45 0.42 0.44 0.51 0.57 0.60 0.67 0.76 0.83 0.90 1.02 1.09 1.21 1.30 1.33 1.39 1.51 1.52 1.49
0.89 0.94 0.55 0.60 0.85 0.94 0.95 0.89 1.04 1.58 1.22 0.68 0.34 0.30 0.37 0.32 0.30 0.32 0.31 0.30 0.29 0.28 0.30 0.33 0.38 0.39 0.37 0.36 0.37 0.40 0.48 0.62 0.69 0.69 0.76 0.85 0.93 0.99 1.08 1.17 1.23 1.28 1.26 1.25
0.80 1.12 0.81 0.79 1.04 0.99 0.98 1.17 1.25 1.29 1.02 0.89 0.59 0.45 0.37 0.31 0.29 0.30 0.31 0.27 0.25 0.24 0.27 0.28 0.30 0.33 0.37 0.34 0.32 0.32 0.39 0.51 0.59 0.61 0.66 0.71 0.77 0.83 0.88 0.93 0.98 1.03 1.05 1.06
0.78 1.27 1.02 0.69 0.60 0.66 0.83 0.94 1.13 1.50 1.12 0.84 0.72 0.53 0.32 0.25 0.25 0.26 0.27 0.27 0.26 0.26 0.28 0.26 0.25 0.26 0.33 0.34 0.33 0.32 0.36 0.44 0.52 0.56 0.61 0.67 0.69 0.71 0.77 0.83 0.83 0.83 0.86 0.89
1.01 1.51 1.40 1.00 0.87 0.87 0.99 0.87 0.90 1.24 1.52 1.19 0.94 0.57 0.30 0.22 0.21 0.22 0.23 0.26 0.28 0.29 0.29 0.28 0.25 0.24 0.28 0.32 0.33 0.32 0.35 0.41 0.46 0.53 0.56 0.61 0.64 0.65 0.68 0.72 0.75 0.77 0.81 0.87
1.26 1.51 1.27 1.06 0.98 1.01 0.96 0.77 0.87 1.56 1.93 1.12 0.62 0.39 0.25 0.24 0.28 0.27 0.25 0.26 0.30 0.32 0.31 0.31 0.34 0.29 0.28 0.29 0.29 0.28 0.31 0.36 0.40 0.47 0.51 0.54 0.61 0.64 0.64 0.65 0.66 0.70 0.74 0.80
1.08 1.41 0.95 0.61 0.48 0.67 0.71 0.69 0.81 1.17 1.18 1.10 0.61 0.36 0.30 0.30 0.35 0.32 0.28 0.26 0.26 0.28 0.29 0.29 0.31 0.33 0.31 0.29 0.28 0.26 0.27 0.30 0.34 0.41 0.46 0.49 0.55 0.60 0.64 0.64 0.66 0.68 0.70 0.75
0.88 1.15 0.94 0.67 0.41 0.51 0.60 0.57 0.60 0.69 0.74 0.74 0.54 0.48 0.37 0.33 0.31 0.30 0.27 0.25 0.25 0.25 0.27 0.27 0.25 0.28 0.28 0.30 0.31 0.30 0.29 0.28 0.32 0.36 0.40 0.44 0.48 0.52 0.58 0.64 0.65 0.66 0.70 0.75
0.78 1.02 1.19 0.85 0.48 0.60 0.74 0.64 0.62 0.63 0.62 0.63 0.66 0.57 0.43 0.39 0.35 0.32 0.29 0.25 0.24 0.21 0.20 0.22 0.22 0.24 0.24 0.25 0.28 0.29 0.29 0.28 0.30 0.34 0.36 0.41 0.46 0.51 0.54 0.62 0.69 0.75 0.80 0.87
0.53 0.88 1.32 0.98 0.69 0.87 0.68 0.50 0.51 0.55 0.57 0.59 0.56 0.47 0.41 0.38 0.35 0.34 0.30 0.24 0.21 0.19 0.17 0.15 0.17 0.17 0.17 0.19 0.21 0.26 0.27 0.28 0.29 0.34 0.40 0.44 0.48 0.57 0.64 0.66 0.74 0.84 0.91 0.98
0.31 0.74 1.27 1.13 0.86 0.59 0.39 0.36 0.47 0.55 0.60 0.55 0.43 0.34 0.31 0.31 0.32 0.33 0.28 0.22 0.19 0.18 0.20 0.18 0.16 0.17 0.17 0.18 0.21 0.27 0.31 0.32 0.31 0.34 0.41 0.47 0.50 0.62 0.71 0.71 0.76 0.85 0.91 0.97
0.29 0.61 1.23 1.18 1.01 0.57 0.39 0.24 0.26 0.43 0.66 0.47 0.38 0.35 0.34 0.35 0.42 0.36 0.27 0.23 0.22 0.20 0.20 0.22 0.21 0.19 0.22 0.24 0.26 0.32 0.38 0.44 0.46 0.45 0.49 0.56 0.64 0.74 0.79 0.78 0.77 0.78 0.80 0.82
0.47 0.85 1.14 1.00 0.95 0.51 0.35 0.22 0.23 0.60 0.72 0.37 0.34 0.35 0.36 0.39 0.39 0.32 0.24 0.21 0.23 0.25 0.24 0.24 0.25 0.26 0.30 0.31 0.33 0.36 0.41 0.53 0.59 0.60 0.62 0.65 0.71 0.75 0.76 0.74 0.71 0.68 0.64 0.65
0.46 0.64 0.71 0.75 0.98 0.71 0.37 0.28 0.50 0.64 0.38 0.32 0.33 0.36 0.37 0.36 0.29 0.25 0.25 0.24 0.21 0.22 0.23 0.27 0.30 0.31 0.34 0.40 0.44 0.46 0.49 0.55 0.60 0.62 0.62 0.63 0.64 0.65 0.68 0.67 0.65 0.61 0.59 0.59
0.49 0.61 0.63 0.67 0.75 0.62 0.47 0.49 0.49 0.40 0.36 0.31 0.32 0.33 0.32 0.33 0.32 0.26 0.23 0.22 0.21 0.23 0.24 0.29 0.34 0.37 0.41 0.42 0.45 0.48 0.47 0.48 0.51 0.55 0.57 0.55 0.53 0.53 0.55 0.56 0.57 0.56 0.56 0.56
0.45 0.38 0.47 0.56 0.57 0.48 0.44 0.38 0.34 0.32 0.33 0.30 0.28 0.28 0.29 0.32 0.31 0.28 0.25 0.23 0.20 0.21 0.23 0.26 0.30 0.32 0.34 0.36 0.37 0.39 0.37 0.37 0.39 0.42 0.46 0.48 0.46 0.45 0.46 0.46 0.49 0.51 0.52 0.52
0.49 0.42 0.45 0.51 0.46 0.37 0.36 0.35 0.33 0.31 0.27 0.24 0.22 0.22 0.25 0.26 0.26 0.27 0.28 0.26 0.24 0.23 0.23 0.24 0.26 0.29 0.31 0.31 0.31 0.32 0.32 0.32 0.35 0.36 0.37 0.39 0.42 0.44 0.46 0.47 0.49 0.53 0.53 0.58
0.40 0.43 0.51 0.57 0.44 0.43 0.44 0.36 0.31 0.29 0.28 0.25 0.23 0.22 0.21 0.22 0.24 0.22 0.24 0.24 0.24 0.26 0.25 0.25 0.25 0.28 0.32 0.32 0.29 0.29 0.30 0.31 0.35 0.37 0.37 0.39 0.42 0.43 0.44 0.45 0.49 0.55 0.57 0.61